Fort Rucker / Ozark, AL

3:02 PM CDT on July 23, 2017 (GMT -0500)
Fort Rucker / Ozark

Weather History for KLOR - December, 2012

Change the Weather History Date:

Monday, December 24, 2012

  Actual Average (KOZR) Record (KOZR)
Temperature  
Mean Temperature 58 °F -  
Max Temperature 71 °F 58 °F 82 °F (2015)
Min Temperature 46 °F 36 °F 28 °F (2004)
Degree Days  
Heating Degree Days 6    
Growing Degree Days 8 (Base 50)    
Moisture  
Dew Point 57 °F    
Average Humidity 88    
Maximum Humidity 97    
Minimum Humidity 70    
Precipitation  
Precipitation 1.01 in - - ()
Sea Level Pressure  
Sea Level Pressure 29.92 in    
Wind  
Wind Speed 5 mph (SSW)    
Max Wind Speed 17 mph    
Max Gust Speed 24 mph    
Visibility 6 miles    
Events Fog , Rain , Thunderstorm    
Averages and records for this station are not official NWS values.
T = Trace of Precipitation, MM = Missing Value Source: NWS Daily Summary

Daily Weather History Graph

Daily Weather History Graph

Search for Another Location

Airport or City:

Trip Planner

Search our weather history database for the weather conditions in past years. The results will help you decide how hot, cold, wet, or windy it might be!

Date:

Astronomy

Dec. 24, 2012 Rise Set
Actual Time 6:39 AM CST 4:46 PM CST
Civil Twilight 6:12 AM CST 5:13 PM CST
Nautical Twilight 5:42 AM CST 5:43 PM CST
Astronomical Twilight 5:12 AM CST 6:13 PM CST
Moon 2:09 PM CST (12/24) 3:22 AM CST (12/24)
Length of Visible Light 11h 00m
Length of Day
10h 06m
Waxing Gibbous, 88% of the Moon is Illuminated
Dec 24
Waxing Gibbous
Dec 28
Full
Jan 4
Last Quarter
Jan 11
New
Jan 18
First Quarter

Hourly Weather History & Observations

Time (CST) Temp. Dew Point Humidity Pressure Visibility Wind Dir Wind Speed Gust Speed Precip Events Conditions
12:53 AM 46.9 °F 39.9 °F 77% 30.05 in 10.0 mi Calm Calm - N/A   Overcast
1:53 AM 48.9 °F 42.1 °F 77% 30.03 in 10.0 mi South 3.5 mph - N/A   Overcast
2:53 AM 50.0 °F 44.1 °F 80% 30.01 in 10.0 mi SSW 5.8 mph - N/A   Overcast
3:53 AM 48.9 °F 44.1 °F 83% 29.98 in 10.0 mi SSW 4.6 mph - N/A   Clear
4:53 AM 50.0 °F 46.0 °F 86% 29.97 in 10.0 mi SSW 4.6 mph - N/A   Overcast
5:53 AM 51.1 °F 46.9 °F 86% 29.96 in 10.0 mi SSW 3.5 mph - N/A   Overcast
6:53 AM 51.1 °F 46.9 °F 86% 29.96 in 10.0 mi SSW 4.6 mph - N/A   Scattered Clouds
7:01 AM 51.8 °F 48.2 °F 88% 29.96 in 10.0 mi SSW 4.6 mph - N/A Thunderstorm Thunderstorm
7:17 AM 51.8 °F 48.2 °F 88% 29.95 in 10.0 mi SSW 4.6 mph - N/A   Scattered Clouds
7:32 AM 53.6 °F 48.2 °F 82% 29.95 in 10.0 mi SW 3.5 mph - N/A Thunderstorm Thunderstorm
7:53 AM 54.0 °F 50.0 °F 86% 29.95 in 10.0 mi SSW 4.6 mph - N/A   Overcast
8:03 AM 53.6 °F 50.0 °F 88% 29.95 in 10.0 mi SSW 4.6 mph - N/A Thunderstorm Thunderstorm
8:53 AM 59.0 °F 54.0 °F 83% 29.95 in 10.0 mi South 5.8 mph - N/A Thunderstorm Thunderstorm
8:59 AM 60.8 °F 53.6 °F 77% 29.95 in 10.0 mi South 6.9 mph - N/A   Overcast
9:43 AM 62.6 °F 57.2 °F 82% 29.95 in 7.0 mi SSW 11.5 mph - 0.00 in Rain , Thunderstorm Light Thunderstorms and Rain
9:53 AM 62.1 °F 57.9 °F 86% 29.94 in 10.0 mi SSW 11.5 mph - 0.00 in   Overcast
10:25 AM 62.6 °F 59.0 °F 88% 29.93 in 10.0 mi SSW 15.0 mph 19.6 mph N/A Thunderstorm Thunderstorm
10:53 AM 63.0 °F 59.0 °F 87% 29.91 in 10.0 mi SSW 12.7 mph - 0.00 in Thunderstorm Thunderstorm
11:10 AM 62.6 °F 60.8 °F 94% 29.90 in 10.0 mi SSW 12.7 mph - 0.01 in Rain Light Rain
11:26 AM 62.6 °F 60.8 °F 94% 29.90 in 3.0 mi SSW 10.4 mph - 0.03 in Rain , Thunderstorm Thunderstorms and Rain
11:36 AM 62.6 °F 60.8 °F 94% 29.89 in 2.5 mi SSW 11.5 mph - 0.06 in Rain , Thunderstorm Thunderstorms and Rain
11:44 AM 62.6 °F 60.8 °F 94% 29.88 in 1.8 mi South 15.0 mph - 0.11 in Rain Heavy Rain
11:53 AM 63.0 °F 61.0 °F 93% 29.91 in 0.8 mi SW 17.3 mph 23.0 mph 0.26 in Rain Heavy Rain
12:08 PM 62.6 °F 60.8 °F 94% 29.89 in 0.2 mi WSW 9.2 mph 24.2 mph 0.74 in Fog , Rain , Thunderstorm Heavy Thunderstorms and Rain
12:14 PM 64.4 °F 62.6 °F 94% 29.90 in 1.2 mi Variable 5.8 mph - 0.74 in Rain , Thunderstorm Light Thunderstorms and Rain
12:17 PM 64.4 °F 62.6 °F 94% 29.90 in 4.0 mi WNW 6.9 mph - 0.74 in Rain , Thunderstorm Light Thunderstorms and Rain
12:26 PM 64.4 °F 60.8 °F 88% 29.89 in 10.0 mi WNW 3.5 mph - 0.74 in Thunderstorm Thunderstorm
12:40 PM 66.2 °F 62.6 °F 88% 29.88 in 10.0 mi Variable 3.5 mph - 0.74 in Thunderstorm Thunderstorm
12:47 PM 66.2 °F 62.6 °F 88% 29.88 in 10.0 mi Calm Calm - 0.74 in   Mostly Cloudy
12:53 PM 66.9 °F 62.1 °F 84% 29.88 in 10.0 mi WSW 5.8 mph - 0.74 in   Mostly Cloudy
1:53 PM 71.1 °F 63.0 °F 75% 29.86 in 10.0 mi WSW 9.2 mph 18.4 mph N/A   Mostly Cloudy
2:53 PM 71.1 °F 61.0 °F 70% 29.86 in 10.0 mi SW 8.1 mph - N/A   Mostly Cloudy
3:53 PM 70.0 °F 62.1 °F 76% 29.87 in 10.0 mi WSW 9.2 mph - N/A   Mostly Cloudy
4:53 PM 64.9 °F 61.0 °F 87% 29.88 in 10.0 mi SSW 3.5 mph - N/A   Partly Cloudy
5:53 PM 63.0 °F 60.1 °F 90% 29.89 in 10.0 mi South 3.5 mph - N/A   Partly Cloudy
6:45 PM 62.6 °F 60.8 °F 94% 29.90 in 4.0 mi Calm Calm - N/A   Mostly Cloudy
6:53 PM 62.1 °F 60.1 °F 93% 29.90 in 3.0 mi Calm Calm - N/A   Mostly Cloudy
7:00 PM 62.6 °F 60.8 °F 94% 29.90 in 2.0 mi Calm Calm - N/A   Overcast
7:08 PM 62.6 °F 60.8 °F 94% 29.91 in 0.8 mi Calm Calm - N/A   Mist
7:15 PM 62.6 °F 60.8 °F 94% 29.91 in 0.2 mi Calm Calm - N/A Fog Fog
7:24 PM 62.6 °F 60.8 °F 94% 29.91 in 0.2 mi Calm Calm - N/A Fog Fog
7:34 PM 62.6 °F 60.8 °F 94% 29.92 in 1.0 mi Calm Calm - N/A   Overcast
7:53 PM 61.0 °F 60.1 °F 97% 29.91 in 0.5 mi Calm Calm - N/A Fog Fog
8:08 PM 62.6 °F 60.8 °F 94% 29.92 in 1.2 mi Calm Calm - N/A   Overcast
8:31 PM 62.6 °F 60.8 °F 94% 29.92 in 0.8 mi Calm Calm - N/A   Mist
8:53 PM 62.1 °F 61.0 °F 96% 29.91 in 0.2 mi Calm Calm - N/A Fog Fog
9:53 PM 62.1 °F 61.0 °F 96% 29.92 in 0.2 mi SSW 3.5 mph - 0.01 in Fog Fog
10:53 PM 62.1 °F 60.1 °F 93% 29.92 in 0.2 mi WSW 3.5 mph - N/A Fog Fog
11:53 PM 61.0 °F 60.1 °F 97% 29.92 in 0.5 mi Calm Calm - N/A Fog Fog